DW2738 Weather Reports


Display with metric or nautical units.
time (UTC)temp
F
wind
direction
speed
MPH
gust
MPH
rain 1hr
in
rain 24hr
in
rain mn
in
humidity
%
barometer
mb
20260510014759 54 194 0.0 1.0 0.00 0.00 0.00 98 1010.2
20260510014256 54 195 0.0 0.0 0.00 0.00 0.00 98 1010.0
20260510013752 54 195 0.0 0.0 0.00 0.00 0.00 97 1010.2
20260510013248 54 195 0.0 0.0 0.00 0.00 0.00 97 1010.3
20260510012743 55 195 0.0 0.0 0.00 0.00 0.00 97 1010.1
20260510012238 54 195 0.0 0.0 0.00 0.00 0.00 97 1010.0
20260510011737 54 195 0.0 0.0 0.00 0.00 0.00 97 1010.2
20260510011234 55 195 0.0 0.0 0.00 0.00 0.00 97 1010.0
20260510010731 55 195 0.0 0.0 0.00 0.00 0.00 97 1009.9
20260510010227 55 195 0.0 0.0 0.00 0.00 0.00 96 1009.9
20260510005724 55 195 0.0 0.0 0.00 0.00 0.00 96 1010.0
20260510005221 55 195 0.0 0.0 0.00 0.00 0.00 96 1009.8
20260510004718 56 195 0.0 0.0 0.00 0.00 0.00 96 1009.8
20260510004216 56 195 0.0 0.0 0.00 0.00 0.00 95 1010.0
20260510003713 56 195 0.0 0.0 0.00 0.00 0.00 95 1009.8
20260510003209 57 195 0.0 0.0 0.00 0.00 0.00 94 1009.7
20260510002708 57 195 0.0 0.0 0.00 0.00 0.00 94 1009.7
20260510002206 57 195 0.0 0.0 0.00 0.00 0.00 93 1009.7
20260510001702 58 195 0.0 0.0 0.00 0.00 0.00 93 1009.8
20260510001201 58 195 0.0 0.0 0.00 0.00 0.00 92 1009.6
20260510000656 58 195 0.0 0.0 0.00 0.00 0.00 92 1009.6
20260510000154 59 195 0.0 0.0 0.00 0.00 0.00 91 1009.6
20260509235650 59 195 0.0 1.0 0.00 0.00 0.00 91 1009.7
20260509235147 60 234 0.0 0.0 0.00 0.00 0.00 90 1009.6
20260509234643 60 234 0.0 0.0 0.00 0.00 0.00 89 1009.6
20260509234141 60 234 0.0 0.0 0.00 0.00 0.00 89 1009.5
20260509233638 60 234 0.0 0.0 0.00 0.00 0.00 88 1009.5
20260509233136 60 234 0.0 0.0 0.00 0.00 0.00 88 1009.5
20260509232631 61 234 0.0 0.0 0.00 0.00 0.00 87 1009.3
20260509232128 61 234 0.0 0.0 0.00 0.00 0.00 86 1009.5
20260509231625 62 140 0.0 0.0 0.00 0.00 0.00 86 1009.5
20260509231123 62 140 0.0 2.0 0.00 0.00 0.00 86 1009.3
20260509230619 62 249 0.0 2.0 0.00 0.00 0.00 85 1009.5
20260509230117 62 254 1.0 2.0 0.00 0.00 0.00 85 1009.3
20260509225612 62 270 0.0 0.0 0.00 0.00 0.00 85 1009.2
20260509225108 62 261 0.0 2.0 0.00 0.00 0.00 83 1009.3
20260509224603 62 240 0.0 1.0 0.00 0.00 0.00 84 1009.4
20260509224101 62 209 0.0 2.0 0.00 0.00 0.00 84 1009.5
20260509223557 62 225 2.0 2.0 0.00 0.00 0.00 83 1009.3
20260509223055 62 229 2.0 3.0 0.00 0.00 0.00 84 1009.3
20260509222551 62 188 0.0 2.0 0.00 0.00 0.00 84 1009.5
20260509222047 61 261 0.0 2.0 0.02 0.00 0.00 83 1009.4
20260509221543 62 262 1.0 3.0 0.02 0.00 0.00 81 1009.4
20260509221039 64 334 2.0 3.0 0.00 0.00 0.00 76 1009.5
20260509220535 64 294 0.0 2.0 0.00 0.00 0.00 74 1009.2
20260509220032 64 254 2.0 2.0 0.00 0.00 0.00 74 1009.2
20260509215527 64 252 2.0 4.0 0.00 0.00 0.00 73 1009.1
20260509215024 64 139 0.0 3.0 0.00 0.00 0.00 72 1009.3
20260509214521 65 342 0.0 3.0 0.00 0.00 0.00 72 1009.2
20260509214018 65 131 2.0 3.0 0.00 0.00 0.00 73 1009.3
20260509213514 65 251 0.0 2.0 0.00 0.00 0.00 74 1009.2
20260509213011 65 263 0.0 2.0 0.00 0.00 0.00 74 1009.2
20260509212509 64 259 2.0 3.0 0.00 0.00 0.00 74 1009.0
20260509212005 65 259 0.0 5.0 0.00 0.00 0.00 74 1008.8
20260509211500 65 349 0.0 2.0 0.00 0.00 0.00 74 1008.9
20260509210957 65 345 2.0 3.0 0.00 0.00 0.00 73 1008.7
20260509210454 65 353 2.0 3.0 0.00 0.00 0.00 73 1008.9
20260509205950 66 352 0.0 3.0 0.00 0.00 0.00 71 1009.0
20260509205445 70 152 3.0 4.0 0.00 0.00 0.00 64 1008.9
20260509204941 70 264 1.0 4.0 0.00 0.00 0.00 65 1009.1
20260509204437 71 302 0.0 4.0 0.00 0.00 0.00 63 1008.9
20260509203934 71 188 3.0 5.0 0.00 0.00 0.00 64 1008.7
20260509203430 70 259 3.0 5.0 0.00 0.00 0.00 65 1008.7
20260509202927 70 177 2.0 3.0 0.00 0.00 0.00 65 1008.7
20260509202423 70 281 2.0 3.0 0.00 0.00 0.00 66 1008.5
20260509201919 71 255 3.0 4.0 0.00 0.00 0.00 65 1008.7
20260509201414 71 175 3.0 8.0 0.00 0.00 0.00 65 1008.7
20260509200911 71 204 2.0 5.0 0.00 0.00 0.00 66 1008.8
20260509200411 69 257 2.0 8.0 0.00 0.00 0.00 69 1009.0
20260509195908 69 93 3.0 6.0 0.00 0.00 0.00 69 1009.0
20260509195403 69 132 2.0 6.0 0.00 0.00 0.00 70 1008.9
20260509194903 70 230 4.0 7.0 0.00 0.00 0.00 70 1008.9
20260509194359 70 126 3.0 5.0 0.00 0.00 0.00 71 1008.9
20260509193856 69 157 3.0 6.0 0.00 0.00 0.00 74 1008.8
20260509193356 69 183 2.0 7.0 0.00 0.00 0.00 74 1009.0
20260509192852 68 131 0.0 5.0 0.00 0.00 0.00 75 1008.9
20260509192348 67 117 0.0 9.0 0.00 0.00 0.00 76 1009.2
20260509191844 67 163 2.0 6.0 0.00 0.00 0.00 76 1009.2
20260509191339 67 210 4.0 6.0 0.00 0.00 0.00 76 1009.2
20260509190836 67 167 3.0 7.0 0.00 0.00 0.00 76 1009.6
20260509190333 67 130 5.0 10.0 0.00 0.00 0.00 76 1009.7
20260509185830 67 230 4.0 7.0 0.00 0.00 0.00 77 1009.4
20260509185327 67 158 0.0 9.0 0.00 0.00 0.00 77 1009.8
20260509184824 67 145 0.0 7.0 0.00 0.00 0.00 77 1009.8
20260509184321 67 180 4.0 6.0 0.00 0.00 0.00 75 1009.8
20260509183818 67 234 1.0 9.0 0.00 0.00 0.00 75 1009.9
20260509183313 68 184 2.0 5.0 0.00 0.00 0.00 73 1009.9
20260509182809 68 180 2.0 11.0 0.00 0.00 0.00 72 1010.2
20260509182307 68 236 3.0 8.0 0.00 0.00 0.00 71 1010.0
20260509181803 69 68 2.0 11.0 0.00 0.00 0.00 71 1010.0
20260509181301 70 162 3.0 10.0 0.00 0.00 0.00 68 1010.0
20260509180758 71 231 2.0 6.0 0.00 0.00 0.00 68 1009.6
20260509180254 70 186 0.0 7.0 0.00 0.00 0.00 69 1009.9
20260509175750 71 209 3.0 10.0 0.00 0.00 0.00 66 1010.1
20260509175247 71 26 3.0 7.0 0.00 0.00 0.00 64 1009.7
20260509174743 71 223 5.0 9.0 0.00 0.00 0.00 63 1010.0
20260509174238 71 280 3.0 10.0 0.00 0.00 0.00 63 1009.9
20260509173735 71 280 3.0 10.0 0.00 0.00 0.00 63 1009.9
20260509173230 72 141 3.0 11.0 0.00 0.00 0.00 62 1010.2
20260509172727 72 140 5.0 8.0 0.00 0.00 0.00 59 1010.2
20260509172223 70 150 4.0 7.0 0.00 0.00 0.00 60 1010.3
20260509171718 71 159 4.0 7.0 0.00 0.00 0.00 59 1010.3
20260509171215 71 115 6.0 12.0 0.00 0.00 0.00 61 1010.3
20260509170712 71 137 6.0 11.0 0.00 0.00 0.00 61 1010.5
20260509170208 70 236 2.0 9.0 0.00 0.00 0.00 63 1010.5
20260509165707 70 126 1.0 13.0 0.00 0.00 0.00 63 1010.6
20260509165202 70 120 7.0 7.0 0.00 0.00 0.00 63 1010.4
20260509164658 71 256 8.0 11.0 0.00 0.00 0.00 61 1010.2
20260509164154 73 240 0.0 9.0 0.00 0.00 0.00 58 1010.3
20260509163652 72 199 3.0 8.0 0.00 0.00 0.00 62 1010.3
20260509163148 71 248 3.0 10.0 0.00 0.00 0.00 61 1010.4
20260509162645 72 315 2.0 7.0 0.00 0.00 0.00 58 1010.4
20260509162141 71 252 4.0 11.0 0.00 0.00 0.00 56 1010.6
20260509161637 72 223 4.0 6.0 0.00 0.00 0.00 57 1010.9
20260509161132 72 170 2.0 9.0 0.00 0.00 0.00 57 1010.8
20260509160628 72 203 1.0 11.0 0.00 0.00 0.00 57 1011.1
20260509160124 72 197 2.0 9.0 0.00 0.00 0.00 56 1011.2
20260509155620 71 348 3.0 10.0 0.00 0.00 0.00 56 1011.3
20260509155116 72 277 4.0 11.0 0.00 0.00 0.00 57 1011.5
20260509154612 72 235 3.0 7.0 0.00 0.00 0.00 56 1011.4
20260509154110 71 180 2.0 7.0 0.00 0.00 0.00 58 1011.6
20260509153607 71 230 5.0 5.0 0.00 0.00 0.00 59 1011.7
20260509153104 70 202 6.0 13.0 0.00 0.00 0.00 59 1011.8
20260509152559 70 275 7.0 9.0 0.00 0.00 0.00 59 1011.8
20260509152057 70 188 3.0 7.0 0.00 0.00 0.00 60 1011.7
20260509151553 69 175 3.0 9.0 0.00 0.00 0.00 60 1011.9
20260509151051 70 222 7.0 7.0 0.00 0.00 0.00 58 1011.9
20260509150548 70 192 1.0 8.0 0.00 0.00 0.00 59 1012.1
20260509150047 70 244 4.0 10.0 0.00 0.00 0.00 57 1011.9
20260509145542 70 184 2.0 7.0 0.00 0.00 0.00 59 1011.8
20260509145037 70 204 6.0 7.0 0.00 0.00 0.00 58 1011.8
20260509144534 70 125 7.0 8.0 0.00 0.00 0.00 57 1011.8
20260509144032 70 175 3.0 6.0 0.00 0.00 0.00 57 1011.8
20260509143528 70 213 5.0 6.0 0.00 0.00 0.00 57 1011.8
20260509143026 70 216 3.0 7.0 0.00 0.00 0.00 59 1011.9
20260509142521 70 354 0.0 6.0 0.00 0.00 0.00 59 1011.9
20260509142017 69 247 4.0 7.0 0.00 0.00 0.00 59 1011.9
20260509141514 68 144 3.0 5.0 0.00 0.00 0.00 60 1011.8
20260509141011 68 178 3.0 8.0 0.00 0.00 0.00 60 1011.7
20260509140507 68 146 4.0 13.0 0.00 0.00 0.00 61 1011.8
20260509140006 67 171 2.0 9.0 0.00 0.00 0.00 60 1012.1
20260509135502 68 214 4.0 5.0 0.00 0.00 0.00 59 1011.7
20260509134959 67 206 1.0 5.0 0.00 0.00 0.00 61 1011.9
20260509134457 67 223 5.0 7.0 0.00 0.00 0.00 61 1011.9
20260509133955 67 198 3.0 5.0 0.00 0.00 0.00 61 1011.8
20260509133451 67 137 4.0 9.0 0.00 0.00 0.00 60 1012.0
20260509132949 67 204 5.0 8.0 0.00 0.00 0.00 61 1011.9
20260509132447 68 266 4.0 5.0 0.00 0.00 0.00 61 1011.8
20260509131944 67 206 5.0 6.0 0.00 0.00 0.00 63 1012.0
20260509131441 67 249 3.0 6.0 0.00 0.00 0.00 63 1012.2
20260509130937 65 182 3.0 4.0 0.00 0.00 0.00 65 1012.1
20260509130432 65 185 3.0 5.0 0.00 0.00 0.00 67 1012.2
20260509125930 65 135 2.0 3.0 0.00 0.00 0.00 66 1012.3
20260509125427 65 235 4.0 7.0 0.00 0.00 0.00 67 1012.2
20260509124922 65 206 0.0 6.0 0.00 0.00 0.00 67 1012.2
20260509124420 65 206 4.0 5.0 0.00 0.00 0.00 67 1012.2
20260509123917 64 243 3.0 4.0 0.00 0.00 0.00 68 1012.2
20260509123414 64 239 2.0 4.0 0.00 0.00 0.00 70 1012.3
20260509122910 64 246 1.0 2.0 0.00 0.00 0.00 71 1012.3
20260509122408 63 214 3.0 4.0 0.00 0.00 0.00 72 1012.3
20260509121904 62 180 0.0 3.0 0.00 0.00 0.00 74 1012.4
20260509121401 61 180 1.0 2.0 0.00 0.00 0.00 76 1012.2
20260509120859 61 180 2.0 5.0 0.00 0.00 0.00 77 1012.3
20260509120356 60 196 5.0 5.0 0.00 0.00 0.00 77 1012.3
20260509115854 60 156 2.0 3.0 0.00 0.00 0.00 79 1012.6
20260509115351 59 127 0.0 4.0 0.00 0.00 0.00 80 1012.6
20260509114849 58 188 0.0 4.0 0.00 0.00 0.00 81 1012.3
20260509114348 58 135 3.0 3.0 0.00 0.00 0.00 82 1012.6
20260509113847 58 168 0.0 4.0 0.00 0.00 0.00 83 1012.6
20260509113343 57 180 1.0 3.0 0.00 0.00 0.00 83 1012.3
20260509112840 57 161 0.0 4.0 0.00 0.00 0.00 83 1012.5
20260509112337 57 195 0.0 3.0 0.00 0.00 0.00 83 1012.7
20260509111834 57 174 0.0 2.0 0.00 0.00 0.00 83 1012.6
20260509111331 57 165 1.0 2.0 0.00 0.00 0.00 83 1012.6
20260509110829 57 0 0.0 3.0 0.00 0.00 0.00 83 1012.6
20260509110325 57 180 0.0 3.0 0.00 0.00 0.00 82 1012.4
20260509105823 57 180 0.0 3.0 0.00 0.00 0.00 82 1012.5
20260509105321 57 191 3.0 4.0 0.00 0.00 0.00 81 1012.3
20260509104817 57 171 2.0 4.0 0.00 0.00 0.00 81 1012.3
20260509104314 57 172 2.0 3.0 0.00 0.00 0.00 81 1012.3
20260509103812 57 125 2.0 3.0 0.00 0.00 0.00 81 1012.4
20260509103309 57 154 0.0 4.0 0.00 0.00 0.00 81 1012.4
20260509102808 57 125 0.0 3.0 0.00 0.00 0.00 81 1012.4
20260509102306 57 125 0.0 3.0 0.00 0.00 0.00 81 1012.4
20260509101800 57 151 0.0 3.0 0.00 0.00 0.00 81 1012.6
20260509101256 57 172 0.0 1.0 0.00 0.00 0.00 81 1012.3
20260509100754 57 202 2.0 3.0 0.00 0.00 0.00 81 1012.3
20260509100252 57 248 2.0 3.0 0.00 0.00 0.00 82 1012.0
20260509095748 57 216 0.0 3.0 0.00 0.00 0.00 82 1012.0
20260509095245 57 212 0.0 5.0 0.00 0.00 0.00 81 1012.1
20260509094742 57 168 1.0 6.0 0.00 0.00 0.00 81 1012.1
20260509094239 57 188 5.0 5.0 0.00 0.00 0.00 82 1012.0
20260509093737 56 198 5.0 5.0 0.00 0.00 0.00 82 1012.2
20260509093234 56 188 0.0 3.0 0.00 0.00 0.00 82 1012.2
20260509092732 56 265 2.0 4.0 0.00 0.00 0.00 82 1012.1
20260509092230 56 192 2.0 3.0 0.00 0.00 0.00 83 1011.9
20260509091728 56 227 3.0 4.0 0.00 0.00 0.00 83 1012.1
20260509091223 56 143 2.0 4.0 0.00 0.00 0.00 82 1012.0
20260509090721 55 184 0.0 5.0 0.00 0.00 0.00 84 1012.1
20260509090218 54 191 1.0 4.0 0.00 0.00 0.00 84 1012.1
20260509085716 54 148 2.0 3.0 0.00 0.00 0.00 84 1012.4
20260509085213 53 191 3.0 3.0 0.00 0.00 0.00 87 1012.1
20260509084709 52 270 1.0 2.0 0.00 0.00 0.00 87 1012.4
20260509084206 52 209 1.0 3.0 0.00 0.00 0.00 87 1012.5
20260509083704 52 157 1.0 2.0 0.00 0.00 0.00 87 1012.2
20260509083201 51 209 1.0 2.0 0.00 0.00 0.00 88 1012.4
20260509082658 51 164 0.0 3.0 0.00 0.00 0.00 89 1012.3
20260509082154 51 194 0.0 2.0 0.00 0.00 0.00 89 1012.5
20260509081651 50 174 0.0 2.0 0.00 0.00 0.00 89 1012.4
20260509081148 50 246 0.0 2.0 0.00 0.00 0.00 90 1012.4
20260509080646 49 200 0.0 1.0 0.00 0.00 0.00 90 1012.2
20260509080144 49 203 0.0 1.0 0.00 0.00 0.00 90 1012.5
20260509075642 49 180 0.0 1.0 0.00 0.00 0.00 90 1012.3
20260509075139 49 189 0.0 2.0 0.00 0.00 0.00 90 1012.5
20260509074636 48 240 0.0 1.0 0.00 0.00 0.00 90 1012.6
20260509074132 49 180 0.0 2.0 0.00 0.00 0.00 90 1012.4
20260509073630 49 180 0.0 1.0 0.00 0.00 0.00 90 1012.4
20260509073125 49 212 1.0 2.0 0.00 0.00 0.00 90 1012.6
20260509072623 49 157 0.0 1.0 0.00 0.00 0.00 89 1012.5
20260509072119 49 160 0.0 1.0 0.00 0.00 0.00 90 1012.5
20260509071616 49 173 0.0 1.0 0.00 0.00 0.00 89 1012.4
20260509071113 49 145 0.0 1.0 0.00 0.00 0.00 89 1012.4
20260509070611 49 180 0.0 0.0 0.00 0.00 0.00 89 1012.5
20260509070107 49 157 0.0 0.0 0.00 0.00 0.00 89 1012.4
20260509065602 49 154 0.0 1.0 0.00 0.00 0.00 89 1012.5
20260509065058 49 254 0.0 0.0 0.00 0.00 0.00 89 1012.5
20260509064556 49 199 2.0 2.0 0.00 0.00 0.00 89 1012.6
20260509064054 49 151 0.0 1.0 0.00 0.00 0.00 90 1012.8
20260509063549 49 254 0.0 0.0 0.00 0.00 0.00 90 1012.7
20260509063047 49 254 0.0 0.0 0.00 0.00 0.00 89 1012.6
20260509062544 49 254 0.0 0.0 0.00 0.00 0.00 89 1012.7
20260509062042 49 254 0.0 0.0 0.00 0.00 0.00 89 1012.6
20260509061538 49 220 0.0 0.0 0.00 0.00 0.00 89 1012.7
20260509061036 49 220 0.0 0.0 0.00 0.00 0.00 88 1012.8
20260509060533 49 215 0.0 1.0 0.00 0.00 0.00 88 1012.8
20260509060029 49 165 0.0 0.0 0.00 0.00 0.00 88 1012.9
20260509055524 49 195 0.0 0.0 0.00 0.00 0.00 88 1012.8
20260509055020 48 203 0.0 1.0 0.00 0.00 0.00 88 1012.7
20260509054517 48 352 0.0 0.0 0.00 0.00 0.00 88 1013.0
20260509054016 48 195 0.0 0.0 0.00 0.00 0.00 88 1012.9
20260509053514 48 195 0.0 0.0 0.00 0.00 0.00 87 1013.0
20260509053010 48 195 0.0 0.0 0.00 0.00 0.00 87 1013.2
20260509052508 48 195 0.0 0.0 0.00 0.00 0.00 88 1013.1
20260509052006 48 195 0.0 0.0 0.00 0.00 0.00 88 1012.9
20260509051504 48 195 0.0 0.0 0.00 0.00 0.00 88 1013.2
20260509051000 48 114 0.0 1.0 0.00 0.00 0.00 88 1013.0
20260509050457 48 98 0.0 1.0 0.00 0.00 0.00 88 1012.9
20260509045953 48 98 0.0 2.0 0.00 0.00 0.00 88 1013.1
20260509045451 48 220 0.0 0.0 0.00 0.00 0.00 88 1013.0
20260509044947 48 220 0.0 0.0 0.00 0.00 0.00 88 1013.1
20260509044445 48 220 0.0 0.0 0.00 0.00 0.00 88 1013.3
20260509043942 48 220 0.0 0.0 0.00 0.00 0.00 87 1013.1
20260509043438 49 106 0.0 0.0 0.00 0.00 0.00 87 1013.0
20260509042933 49 106 0.0 0.0 0.00 0.00 0.00 86 1013.2
20260509042431 49 106 0.0 0.0 0.00 0.00 0.00 85 1013.1
20260509041927 49 246 0.0 0.0 0.00 0.00 0.00 85 1013.1
20260509041424 49 174 0.0 0.0 0.00 0.00 0.00 85 1013.0
20260509040922 50 174 0.0 0.0 0.00 0.00 0.00 85 1013.2
20260509040420 50 174 0.0 0.0 0.00 0.00 0.00 84 1013.1
20260509035916 50 174 0.0 0.0 0.00 0.00 0.00 83 1013.3
20260509035413 50 174 0.0 1.0 0.00 0.00 0.00 83 1013.4
20260509034909 50 188 0.0 0.0 0.00 0.00 0.00 83 1013.4
20260509034408 50 188 0.0 0.0 0.00 0.00 0.00 82 1013.1
20260509033904 51 188 0.0 0.0 0.00 0.00 0.00 81 1013.2
20260509033401 51 188 0.0 0.0 0.00 0.00 0.00 81 1013.2
20260509032858 52 188 0.0 0.0 0.00 0.00 0.00 80 1013.1
20260509032355 53 188 0.0 0.0 0.00 0.00 0.00 79 1013.1
20260509031853 53 188 0.0 0.0 0.00 0.00 0.00 78 1013.0
20260509031350 53 203 0.0 0.0 0.00 0.00 0.00 77 1013.0
20260509030848 53 180 0.0 0.0 0.00 0.00 0.00 77 1013.1
20260509030346 54 180 0.0 1.0 0.00 0.00 0.00 76 1013.0
20260509025843 54 311 0.0 2.0 0.00 0.00 0.00 75 1013.0
20260509025338 55 209 0.0 1.0 0.00 0.00 0.00 74 1013.0
20260509024833 55 246 0.0 2.0 0.00 0.00 0.00 74 1012.9
20260509024330 55 233 2.0 3.0 0.00 0.00 0.00 73 1013.0
20260509023827 55 209 0.0 3.0 0.00 0.00 0.00 72 1012.8
20260509023324 56 232 2.0 2.0 0.00 0.00 0.00 73 1012.9
20260509022821 56 115 2.0 4.0 0.00 0.00 0.00 72 1013.2
20260509022318 57 123 0.0 3.0 0.00 0.00 0.00 71 1013.1
20260509021815 57 270 0.0 3.0 0.00 0.00 0.00 72 1013.1
20260509021312 57 176 0.0 7.0 0.00 0.00 0.00 71 1013.0
20260509020809 57 135 2.0 4.0 0.00 0.00 0.00 72 1013.1
20260509020307 57 186 1.0 3.0 0.00 0.00 0.00 72 1013.1
20260509015805 57 187 0.0 2.0 0.00 0.00 0.00 72 1013.0
20260509015306 58 188 3.0 5.0 0.00 0.00 0.00 71 1012.9